Time,TemperatureF,DewpointF,PressureIn,WindDirection,WindDirectionDegrees,WindSpeedMPH,WindSpeedGustMPH,Humidity,HourlyPrecipIn,Conditions,Clouds,dailyrainin,SoftwareType,DateUTC
2013-06-08 00:02:00,63.0,52.0,29.92,ESE,110,12.0,17.0,67,-99.99,,,-99.99,,2013-06-08 05:02:00,
2013-06-08 00:12:00,61.0,50.0,29.91,ESE,110,10.0,15.0,67,-99.99,,,-99.99,,2013-06-08 05:12:00,
2013-06-08 00:22:00,61.0,50.0,29.91,ESE,110,10.0,15.0,67,-99.99,,,-99.99,,2013-06-08 05:22:00,
2013-06-08 00:32:00,61.0,50.0,29.91,ESE,110,10.0,15.0,67,-99.99,,,-99.99,,2013-06-08 05:32:00,
2013-06-08 00:42:00,61.0,50.0,29.91,ESE,110,10.0,15.0,67,-99.99,,,-99.99,,2013-06-08 05:42:00,
2013-06-08 00:52:00,61.0,50.0,29.91,ESE,110,10.0,-999.0,67,-99.99,,,-99.99,,2013-06-08 05:52:00,
2013-06-08 01:02:00,61.0,50.0,29.91,ESE,110,10.0,-999.0,67,-99.99,,,-99.99,,2013-06-08 06:02:00,
2013-06-08 01:12:00,61.0,50.0,29.91,ESE,110,10.0,-999.0,67,-99.99,,,-99.99,,2013-06-08 06:12:00,
2013-06-08 01:22:00,61.0,50.0,29.91,ESE,110,10.0,-999.0,67,-99.99,,,-99.99,,2013-06-08 06:22:00,
2013-06-08 01:32:00,59.0,48.0,29.90,ESE,110,12.0,16.0,67,-99.99,,,-99.99,,2013-06-08 06:32:00,
2013-06-08 01:42:00,59.0,48.0,29.90,ESE,110,12.0,16.0,67,-99.99,,,-99.99,,2013-06-08 06:42:00,
2013-06-08 01:52:00,61.0,48.0,29.89,ESE,120,13.0,17.0,63,-99.99,,,-99.99,,2013-06-08 06:52:00,
2013-06-08 02:02:00,61.0,48.0,29.89,ESE,120,13.0,17.0,63,-99.99,,,-99.99,,2013-06-08 07:02:00,
2013-06-08 02:12:00,59.0,48.0,29.89,ESE,120,9.0,-999.0,67,-99.99,,,-99.99,,2013-06-08 07:12:00,
2013-06-08 02:22:00,59.0,48.0,29.89,ESE,120,9.0,-999.0,67,-99.99,,,-99.99,,2013-06-08 07:22:00,
2013-06-08 02:32:00,59.0,48.0,29.89,SE,130,14.0,-999.0,67,-99.99,,,-99.99,,2013-06-08 07:32:00,
2013-06-08 02:42:00,59.0,48.0,29.89,SE,130,14.0,-999.0,67,-99.99,,,-99.99,,2013-06-08 07:42:00,
2013-06-08 02:52:00,59.0,48.0,29.89,SE,130,13.0,18.0,67,-99.99,,,-99.99,,2013-06-08 07:52:00,
2013-06-08 03:02:00,59.0,48.0,29.89,SE,130,13.0,18.0,67,-99.99,,,-99.99,,2013-06-08 08:02:00,
2013-06-08 03:12:00,59.0,48.0,29.89,ESE,120,10.0,22.0,67,-99.99,,,-99.99,,2013-06-08 08:12:00,
2013-06-08 03:22:00,59.0,48.0,29.89,ESE,120,10.0,22.0,67,-99.99,,,-99.99,,2013-06-08 08:22:00,
2013-06-08 03:32:00,59.0,48.0,29.89,ESE,120,12.0,-999.0,67,-99.99,,,-99.99,,2013-06-08 08:32:00,
2013-06-08 03:42:00,59.0,48.0,29.89,ESE,120,12.0,-999.0,67,-99.99,,,-99.99,,2013-06-08 08:42:00,
2013-06-08 03:52:00,59.0,48.0,29.88,SE,130,10.0,20.0,67,-99.99,,,-99.99,,2013-06-08 08:52:00,
2013-06-08 04:02:00,59.0,48.0,29.88,SE,130,10.0,20.0,67,-99.99,,,-99.99,,2013-06-08 09:02:00,
2013-06-08 04:12:00,57.0,48.0,29.87,ESE,120,13.0,17.0,71,-99.99,,,-99.99,,2013-06-08 09:12:00,
2013-06-08 04:22:00,57.0,48.0,29.87,ESE,120,13.0,17.0,71,-99.99,,,-99.99,,2013-06-08 09:22:00,
2013-06-08 04:33:00,57.0,48.0,29.86,ESE,120,14.0,-999.0,71,-99.99,,,-99.99,,2013-06-08 09:33:00,
2013-06-08 04:43:00,57.0,48.0,29.86,ESE,120,14.0,-999.0,71,-99.99,,,-99.99,,2013-06-08 09:43:00,
2013-06-08 04:52:00,57.0,48.0,29.86,ESE,120,12.0,16.0,71,-99.99,,,-99.99,,2013-06-08 09:52:00,
2013-06-08 05:03:00,57.0,48.0,29.86,ESE,120,12.0,16.0,71,-99.99,,,-99.99,,2013-06-08 10:03:00,
2013-06-08 05:12:00,57.0,48.0,29.85,ESE,120,9.0,-999.0,71,-99.99,,,-99.99,,2013-06-08 10:12:00,
2013-06-08 05:22:00,57.0,48.0,29.85,ESE,120,9.0,-999.0,71,-99.99,,,-99.99,,2013-06-08 10:22:00,
2013-06-08 05:33:00,57.0,48.0,29.85,ESE,120,10.0,17.0,71,-99.99,,,-99.99,,2013-06-08 10:33:00,
2013-06-08 05:43:00,57.0,48.0,29.85,ESE,120,10.0,17.0,71,-99.99,,,-99.99,,2013-06-08 10:43:00,
2013-06-08 05:52:00,57.0,48.0,29.83,ESE,120,9.0,-999.0,71,-99.99,,,-99.99,,2013-06-08 10:52:00,
2013-06-08 06:02:00,57.0,48.0,29.83,ESE,120,9.0,-999.0,71,-99.99,,,-99.99,,2013-06-08 11:02:00,
2013-06-08 06:12:00,57.0,48.0,29.83,ESE,120,10.0,17.0,71,-99.99,,,-99.99,,2013-06-08 11:12:00,
2013-06-08 06:22:00,57.0,48.0,29.83,ESE,120,10.0,17.0,71,-99.99,,,-99.99,,2013-06-08 11:22:00,
2013-06-08 06:32:00,57.0,48.0,29.84,ESE,110,9.0,-999.0,71,-99.99,,,-99.99,,2013-06-08 11:32:00,
2013-06-08 06:42:00,57.0,48.0,29.84,ESE,110,9.0,-999.0,71,-99.99,,,-99.99,,2013-06-08 11:42:00,
2013-06-08 06:52:00,57.0,50.0,29.86,ESE,120,6.0,-999.0,76,-99.99,,,-99.99,,2013-06-08 11:52:00,
2013-06-08 07:02:00,57.0,50.0,29.86,ESE,120,6.0,-999.0,76,-99.99,,,-99.99,,2013-06-08 12:02:00,
2013-06-08 07:12:00,57.0,50.0,29.88,North,0,0.0,-999.0,76,-99.99,,,-99.99,,2013-06-08 12:12:00,
2013-06-08 07:22:00,57.0,50.0,29.88,North,0,0.0,-999.0,76,-99.99,,,-99.99,,2013-06-08 12:22:00,
2013-06-08 07:32:00,55.0,52.0,29.89,North,-99,5.0,-999.0,87,-99.99,,,-99.99,,2013-06-08 12:32:00,
2013-06-08 07:42:00,55.0,52.0,29.89,North,-99,5.0,-999.0,87,-99.99,,,-99.99,,2013-06-08 12:42:00,
2013-06-08 07:52:00,55.0,52.0,29.89,ESE,120,5.0,-999.0,87,-99.99,,,-99.99,,2013-06-08 12:52:00,
2013-06-08 08:02:00,55.0,52.0,29.89,ESE,120,5.0,-999.0,87,-99.99,,,-99.99,,2013-06-08 13:02:00,
2013-06-08 08:12:00,55.0,52.0,29.88,SE,130,9.0,-999.0,87,-99.99,,,-99.99,,2013-06-08 13:12:00,
2013-06-08 08:22:00,55.0,52.0,29.88,SE,130,9.0,-999.0,87,-99.99,,,-99.99,,2013-06-08 13:22:00,
2013-06-08 08:32:00,54.0,52.0,29.88,SE,130,10.0,15.0,93,-99.99,,,-99.99,,2013-06-08 13:32:00,
2013-06-08 08:42:00,54.0,52.0,29.88,SE,130,10.0,15.0,93,-99.99,,,-99.99,,2013-06-08 13:42:00,
2013-06-08 08:52:00,54.0,54.0,29.87,ESE,120,13.0,-999.0,100,-99.99,,,-99.99,,2013-06-08 13:52:00,
2013-06-08 09:02:00,54.0,54.0,29.87,ESE,120,13.0,-999.0,100,-99.99,,,-99.99,,2013-06-08 14:02:00,
2013-06-08 09:12:00,54.0,52.0,29.85,ESE,120,14.0,18.0,93,-99.99,,,-99.99,,2013-06-08 14:12:00,
2013-06-08 09:22:00,54.0,52.0,29.85,ESE,120,14.0,18.0,93,-99.99,,,-99.99,,2013-06-08 14:22:00,
2013-06-08 09:32:00,54.0,54.0,29.83,ESE,120,18.0,24.0,100,-99.99,,,-99.99,,2013-06-08 14:32:00,
2013-06-08 09:42:00,54.0,54.0,29.83,ESE,120,18.0,24.0,100,-99.99,,,-99.99,,2013-06-08 14:42:00,
2013-06-08 09:52:00,54.0,54.0,29.82,ESE,110,17.0,27.0,100,-99.99,,,-99.99,,2013-06-08 14:52:00,
2013-06-08 10:02:00,54.0,54.0,29.82,ESE,110,17.0,27.0,100,-99.99,,,-99.99,,2013-06-08 15:02:00,
2013-06-08 10:12:00,54.0,54.0,29.81,ESE,120,18.0,25.0,100,-99.99,,,-99.99,,2013-06-08 15:12:00,
2013-06-08 10:22:00,54.0,54.0,29.81,ESE,120,18.0,25.0,100,-99.99,,,-99.99,,2013-06-08 15:22:00,
2013-06-08 10:32:00,54.0,54.0,29.81,ESE,120,20.0,28.0,100,-99.99,,,-99.99,,2013-06-08 15:32:00,
2013-06-08 10:42:00,54.0,54.0,29.81,ESE,120,20.0,28.0,100,-99.99,,,-99.99,,2013-06-08 15:42:00,
2013-06-08 10:53:00,55.0,54.0,29.82,ESE,120,17.0,28.0,93,-99.99,,,-99.99,,2013-06-08 15:53:00,
2013-06-08 11:03:00,55.0,54.0,29.82,ESE,120,17.0,28.0,93,-99.99,,,-99.99,,2013-06-08 16:03:00,
2013-06-08 11:12:00,55.0,55.0,29.81,ESE,120,18.0,28.0,100,-99.99,,,-99.99,,2013-06-08 16:12:00,
2013-06-08 11:23:00,55.0,55.0,29.81,ESE,120,18.0,28.0,100,-99.99,,,-99.99,,2013-06-08 16:23:00,
2013-06-08 11:33:00,57.0,55.0,29.82,SE,130,16.0,25.0,93,-99.99,,,-99.99,,2013-06-08 16:33:00,
2013-06-08 11:42:00,57.0,55.0,29.82,SE,130,16.0,25.0,93,-99.99,,,-99.99,,2013-06-08 16:42:00,
2013-06-08 11:53:00,57.0,55.0,29.81,ESE,120,18.0,27.0,93,-99.99,,,-99.99,,2013-06-08 16:53:00,
2013-06-08 12:02:00,57.0,55.0,29.81,ESE,120,18.0,27.0,93,-99.99,,,-99.99,,2013-06-08 17:02:00,
2013-06-08 12:12:00,57.0,55.0,29.81,SE,130,17.0,25.0,93,-99.99,,,-99.99,,2013-06-08 17:12:00,
2013-06-08 12:22:00,57.0,55.0,29.81,SE,130,17.0,25.0,93,-99.99,,,-99.99,,2013-06-08 17:22:00,
2013-06-08 12:32:00,57.0,55.0,29.81,ESE,120,17.0,22.0,93,-99.99,,,-99.99,,2013-06-08 17:32:00,
2013-06-08 12:42:00,57.0,55.0,29.81,ESE,120,17.0,22.0,93,-99.99,,,-99.99,,2013-06-08 17:42:00,
2013-06-08 12:52:00,57.0,55.0,29.82,ESE,120,15.0,29.0,93,-99.99,,,-99.99,,2013-06-08 17:52:00,
2013-06-08 13:02:00,57.0,55.0,29.82,ESE,120,15.0,29.0,93,-99.99,,,-99.99,,2013-06-08 18:02:00,
2013-06-08 13:12:00,57.0,55.0,29.82,ESE,120,15.0,25.0,93,-99.99,,,-99.99,,2013-06-08 18:12:00,
2013-06-08 13:22:00,57.0,55.0,29.82,ESE,120,15.0,25.0,93,-99.99,,,-99.99,,2013-06-08 18:22:00,
2013-06-08 13:32:00,57.0,55.0,29.82,ESE,120,14.0,20.0,93,-99.99,,,-99.99,,2013-06-08 18:32:00,
2013-06-08 13:42:00,57.0,55.0,29.82,ESE,120,14.0,20.0,93,-99.99,,,-99.99,,2013-06-08 18:42:00,
2013-06-08 13:52:00,57.0,57.0,29.82,SE,130,10.0,22.0,100,-99.99,,,-99.99,,2013-06-08 18:52:00,
2013-06-08 14:03:00,57.0,57.0,29.82,SE,130,10.0,22.0,100,-99.99,,,-99.99,,2013-06-08 19:03:00,
2013-06-08 14:12:00,57.0,57.0,29.81,ESE,120,15.0,20.0,100,-99.99,,,-99.99,,2013-06-08 19:12:00,
2013-06-08 14:22:00,57.0,57.0,29.81,ESE,120,15.0,20.0,100,-99.99,,,-99.99,,2013-06-08 19:22:00,
2013-06-08 14:32:00,57.0,57.0,29.80,ESE,120,13.0,-999.0,100,-99.99,,,-99.99,,2013-06-08 19:32:00,
2013-06-08 14:42:00,57.0,57.0,29.80,ESE,120,13.0,-999.0,100,-99.99,,,-99.99,,2013-06-08 19:42:00,
2013-06-08 14:52:00,59.0,57.0,29.80,SE,130,15.0,-999.0,93,-99.99,,,-99.99,,2013-06-08 19:52:00,
2013-06-08 15:02:00,59.0,57.0,29.80,SE,130,15.0,-999.0,93,-99.99,,,-99.99,,2013-06-08 20:02:00,
2013-06-08 15:12:00,59.0,57.0,29.80,SE,130,13.0,18.0,93,-99.99,,,-99.99,,2013-06-08 20:12:00,
2013-06-08 15:22:00,59.0,57.0,29.80,SE,130,13.0,18.0,93,-99.99,,,-99.99,,2013-06-08 20:22:00,
2013-06-08 15:32:00,59.0,57.0,29.80,SE,130,13.0,25.0,93,-99.99,,,-99.99,,2013-06-08 20:32:00,
2013-06-08 15:42:00,59.0,57.0,29.80,SE,130,13.0,25.0,93,-99.99,,,-99.99,,2013-06-08 20:42:00,
2013-06-08 15:52:00,59.0,57.0,29.80,SE,130,13.0,18.0,93,-99.99,,,-99.99,,2013-06-08 20:52:00,
2013-06-08 16:02:00,59.0,57.0,29.80,SE,130,13.0,18.0,93,-99.99,,,-99.99,,2013-06-08 21:02:00,
2013-06-08 16:12:00,59.0,57.0,29.80,SE,130,12.0,22.0,93,-99.99,,,-99.99,,2013-06-08 21:12:00,
2013-06-08 16:22:00,59.0,57.0,29.80,SE,130,12.0,22.0,93,-99.99,,,-99.99,,2013-06-08 21:22:00,
2013-06-08 16:33:00,59.0,57.0,29.79,SE,130,12.0,21.0,93,-99.99,,,-99.99,,2013-06-08 21:33:00,
2013-06-08 16:43:00,59.0,57.0,29.79,SE,130,12.0,21.0,93,-99.99,,,-99.99,,2013-06-08 21:43:00,
2013-06-08 16:52:00,61.0,59.0,29.79,SE,130,15.0,20.0,93,-99.99,,,-99.99,,2013-06-08 21:52:00,
2013-06-08 17:02:00,61.0,59.0,29.79,SE,130,15.0,20.0,93,-99.99,,,-99.99,,2013-06-08 22:02:00,
2013-06-08 17:12:00,61.0,59.0,29.79,SE,130,14.0,18.0,93,-99.99,,,-99.99,,2013-06-08 22:12:00,
2013-06-08 17:22:00,61.0,59.0,29.79,SE,130,14.0,18.0,93,-99.99,,,-99.99,,2013-06-08 22:22:00,
2013-06-08 17:33:00,61.0,59.0,29.78,ESE,120,12.0,20.0,93,-99.99,,,-99.99,,2013-06-08 22:33:00,
2013-06-08 17:42:00,61.0,59.0,29.78,ESE,120,12.0,20.0,93,-99.99,,,-99.99,,2013-06-08 22:42:00,
2013-06-08 17:52:00,61.0,59.0,29.77,ESE,110,15.0,-999.0,93,-99.99,,,-99.99,,2013-06-08 22:52:00,
2013-06-08 18:02:00,61.0,59.0,29.77,ESE,110,15.0,-999.0,93,-99.99,,,-99.99,,2013-06-08 23:02:00,
2013-06-08 18:12:00,61.0,59.0,29.76,ESE,110,16.0,21.0,93,-99.99,,,-99.99,,2013-06-08 23:12:00,
2013-06-08 18:22:00,61.0,59.0,29.76,ESE,110,16.0,21.0,93,-99.99,,,-99.99,,2013-06-08 23:22:00,
2013-06-08 18:32:00,61.0,59.0,29.76,ESE,110,15.0,21.0,93,-99.99,,,-99.99,,2013-06-08 23:32:00,
2013-06-08 18:42:00,61.0,59.0,29.76,ESE,110,15.0,21.0,93,-99.99,,,-99.99,,2013-06-08 23:42:00,
2013-06-08 18:52:00,61.0,59.0,29.75,East,100,17.0,22.0,93,-99.99,,,-99.99,,2013-06-08 23:52:00,
2013-06-08 19:02:00,61.0,59.0,29.75,East,100,17.0,22.0,93,-99.99,,,-99.99,,2013-06-09 00:02:00,
2013-06-08 19:12:00,57.0,57.0,29.76,ESE,110,17.0,25.0,100,-99.99,,,-99.99,,2013-06-09 00:12:00,
2013-06-08 19:22:00,57.0,57.0,29.76,ESE,110,17.0,25.0,100,-99.99,,,-99.99,,2013-06-09 00:22:00,
2013-06-08 19:32:00,57.0,57.0,29.76,ESE,110,10.0,18.0,100,-99.99,,,-99.99,,2013-06-09 00:32:00,
2013-06-08 19:42:00,57.0,57.0,29.76,ESE,110,10.0,18.0,100,-99.99,,,-99.99,,2013-06-09 00:42:00,
2013-06-08 19:52:00,57.0,57.0,29.76,ESE,110,14.0,25.0,100,-99.99,,,-99.99,,2013-06-09 00:52:00,
2013-06-08 20:02:00,57.0,57.0,29.76,ESE,110,14.0,25.0,100,-99.99,,,-99.99,,2013-06-09 01:02:00,
2013-06-08 20:12:00,57.0,57.0,29.74,East,100,18.0,27.0,100,-99.99,,,-99.99,,2013-06-09 01:12:00,
2013-06-08 20:22:00,57.0,57.0,29.74,East,100,18.0,27.0,100,-99.99,,,-99.99,,2013-06-09 01:22:00,
2013-06-08 20:32:00,57.0,57.0,29.75,ESE,110,17.0,22.0,100,-99.99,,,-99.99,,2013-06-09 01:32:00,
2013-06-08 20:42:00,57.0,57.0,29.75,ESE,110,17.0,22.0,100,-99.99,,,-99.99,,2013-06-09 01:42:00,
2013-06-08 20:52:00,57.0,57.0,29.75,ESE,110,15.0,20.0,100,-99.99,,,-99.99,,2013-06-09 01:52:00,
2013-06-08 21:02:00,57.0,57.0,29.75,ESE,110,15.0,20.0,100,-99.99,,,-99.99,,2013-06-09 02:02:00,
2013-06-08 21:12:00,57.0,57.0,29.75,ESE,110,15.0,20.0,100,-99.99,,,-99.99,,2013-06-09 02:12:00,
2013-06-08 21:22:00,57.0,57.0,29.75,ESE,110,15.0,20.0,100,-99.99,,,-99.99,,2013-06-09 02:22:00,
2013-06-08 21:32:00,59.0,57.0,29.74,East,100,10.0,-999.0,93,-99.99,,,-99.99,,2013-06-09 02:32:00,
2013-06-08 21:42:00,59.0,57.0,29.74,East,100,10.0,-999.0,93,-99.99,,,-99.99,,2013-06-09 02:42:00,
2013-06-08 21:52:00,59.0,57.0,29.73,East,90,10.0,-999.0,93,-99.99,,,-99.99,,2013-06-09 02:52:00,
2013-06-08 22:02:00,59.0,57.0,29.73,East,90,10.0,-999.0,93,-99.99,,,-99.99,,2013-06-09 03:02:00,
2013-06-08 22:12:00,59.0,57.0,29.73,ESE,120,14.0,18.0,93,-99.99,,,-99.99,,2013-06-09 03:12:00,
2013-06-08 22:22:00,59.0,57.0,29.73,ESE,120,14.0,18.0,93,-99.99,,,-99.99,,2013-06-09 03:22:00,
2013-06-08 22:33:00,57.0,57.0,29.73,ESE,110,20.0,25.0,100,-99.99,,,-99.99,,2013-06-09 03:33:00,
2013-06-08 22:43:00,57.0,57.0,29.73,ESE,110,20.0,25.0,100,-99.99,,,-99.99,,2013-06-09 03:43:00,
2013-06-08 22:53:00,57.0,57.0,29.72,East,100,20.0,24.0,100,-99.99,,,-99.99,,2013-06-09 03:53:00,
2013-06-08 23:03:00,57.0,57.0,29.72,East,100,20.0,24.0,100,-99.99,,,-99.99,,2013-06-09 04:03:00,
2013-06-08 23:12:00,57.0,57.0,29.72,East,100,20.0,24.0,100,-99.99,,,-99.99,,2013-06-09 04:12:00,
2013-06-08 23:23:00,57.0,57.0,29.72,East,100,20.0,24.0,100,-99.99,,,-99.99,,2013-06-09 04:23:00,
2013-06-08 23:33:00,57.0,57.0,29.71,East,100,20.0,29.0,100,-99.99,,,-99.99,,2013-06-09 04:33:00,
2013-06-08 23:43:00,57.0,57.0,29.71,East,100,20.0,29.0,100,-99.99,,,-99.99,,2013-06-09 04:43:00,
2013-06-08 23:53:00,57.0,57.0,29.70,East,100,15.0,23.0,100,-99.99,,,-99.99,,2013-06-09 04:53:00,